Shelton, WA

7:10 PM PDT on July 27, 2017 (GMT -0700)
Sanderson

Weather History for KSHN - January, 2014

Change the Weather History Date:

Wednesday, January 1, 2014

  Actual Average Record
Temperature  
Mean Temperature 38 °F -  
Max Temperature 42 °F 42 °F 54 °F (1980)
Min Temperature 33 °F 32 °F 7 °F (1979)
Degree Days  
Heating Degree Days 28    
Moisture  
Dew Point 38 °F    
Average Humidity 96    
Maximum Humidity 100    
Minimum Humidity 92    
Precipitation  
Precipitation 0.02 in - - ()
Sea Level Pressure  
Sea Level Pressure 30.33 in    
Wind  
Wind Speed 2 mph (NE)    
Max Wind Speed 7 mph    
Max Gust Speed -    
Visibility 2 miles    
Events Fog , Rain    
Averages and records for this station are not official NWS values.
T = Trace of Precipitation, MM = Missing Value Source: NWS Daily Summary

Daily Weather History Graph

Daily Weather History Graph

Search for Another Location

Airport or City:

Trip Planner

Search our weather history database for the weather conditions in past years. The results will help you decide how hot, cold, wet, or windy it might be!

Date:

Astronomy

Jan. 01, 2014 Rise Set
Actual Time 7:59 AM PST 4:33 PM PST
Civil Twilight 7:23 AM PST 5:08 PM PST
Nautical Twilight 6:45 AM PST 5:47 PM PST
Astronomical Twilight 6:07 AM PST 6:24 PM PST
Moon 7:49 AM PST (1/1) 5:30 PM PST (1/1)
Length of Visible Light 9h 45m
Length of Day
8h 34m
New Moon, 0% of the Moon is Illuminated
Jan 1
New Moon
Jan 7
First Quarter
Jan 15
Full
Jan 23
Last Quarter
Jan 30
New

Hourly Weather History & Observations

Time (PST) Temp. Windchill Dew Point Humidity Pressure Visibility Wind Dir Wind Speed Gust Speed Precip Events Conditions
12:22 AM 36.0 °F - 35.1 °F 97% 30.36 in 2.5 mi Calm Calm - N/A   Scattered Clouds
12:25 AM 36.0 °F - 35.1 °F 97% 30.36 in 1.2 mi Calm Calm - N/A   Scattered Clouds
12:32 AM 34.0 °F - 34.0 °F 100% 30.36 in 0.2 mi Calm Calm - N/A Fog Fog
12:53 AM 35.1 °F - 34.0 °F 96% 30.37 in 0.2 mi Calm Calm - N/A Fog Fog
1:53 AM 33.1 °F - 33.1 °F 100% 30.38 in 0.2 mi Calm Calm - N/A Fog Fog
2:53 AM 35.1 °F - 34.0 °F 96% 30.40 in 1.8 mi Calm Calm - N/A   Overcast
2:56 AM 35.1 °F - 34.0 °F 96% 30.38 in 3.0 mi Calm Calm - N/A   Overcast
3:19 AM 36.0 °F - 35.1 °F 97% 30.37 in 4.0 mi Calm Calm - N/A   Overcast
3:53 AM 37.9 °F 35.5 °F 37.0 °F 97% 30.39 in 6.0 mi NNE 3.5 mph - N/A   Overcast
4:11 AM 37.9 °F 35.5 °F 37.0 °F 97% 30.37 in 1.5 mi NNE 3.5 mph - N/A   Overcast
4:23 AM 37.9 °F - 37.9 °F 100% 30.37 in 0.8 mi Calm Calm - N/A   Mist
4:39 AM 39.0 °F 35.7 °F 37.9 °F 96% 30.37 in 1.2 mi NNE 4.6 mph - N/A   Overcast
4:53 AM 39.0 °F 34.8 °F 37.9 °F 96% 30.38 in 0.5 mi North 5.8 mph - N/A Fog Fog
5:53 AM 39.9 °F 35.1 °F 39.0 °F 97% 30.38 in 0.8 mi North 6.9 mph - N/A   Mist
6:03 AM 39.9 °F 35.8 °F 39.0 °F 97% 30.36 in 1.0 mi North 5.8 mph - N/A   Overcast
6:18 AM 39.9 °F - 39.0 °F 97% 30.36 in 3.0 mi Calm Calm - N/A   Overcast
6:28 AM 39.9 °F 37.8 °F 39.0 °F 97% 30.36 in 1.8 mi Variable 3.5 mph - N/A   Overcast
6:42 AM 39.0 °F 35.7 °F 37.9 °F 96% 30.36 in 0.8 mi North 4.6 mph - N/A   Mist
6:53 AM 39.0 °F - 37.9 °F 96% 30.37 in 0.5 mi Calm Calm - N/A Fog Fog
7:53 AM 39.0 °F 35.7 °F 37.9 °F 96% 30.37 in 0.2 mi ENE 4.6 mph - N/A Fog Fog
8:53 AM 39.0 °F - 37.9 °F 96% 30.39 in 0.2 mi Calm Calm - N/A Fog Fog
9:53 AM 39.0 °F - 37.9 °F 96% 30.39 in 0.2 mi Calm Calm - N/A Fog Fog
10:53 AM 39.0 °F 34.8 °F 37.9 °F 96% 30.38 in 0.2 mi NNE 5.8 mph - N/A Fog Fog
11:53 AM 39.9 °F - 39.0 °F 97% 30.36 in 1.0 mi Calm Calm - N/A   Overcast
12:00 PM 39.9 °F 36.7 °F 39.0 °F 97% 30.35 in 3.0 mi North 4.6 mph - N/A   Overcast
12:53 PM 39.9 °F - 39.0 °F 97% 30.35 in 8.0 mi Calm Calm - N/A   Overcast
1:53 PM 41.0 °F 39.0 °F 39.9 °F 96% 30.33 in 5.0 mi East 3.5 mph - N/A   Overcast
2:53 PM 41.0 °F 39.0 °F 39.9 °F 96% 30.33 in 2.5 mi East 3.5 mph - N/A   Overcast
3:05 PM 41.0 °F 39.0 °F 39.9 °F 96% 30.31 in 1.5 mi East 3.5 mph - N/A   Overcast
3:23 PM 41.0 °F - 39.9 °F 96% 30.32 in 0.5 mi Calm Calm - N/A Fog Fog
3:53 PM 41.0 °F 38.0 °F 39.9 °F 96% 30.33 in 0.8 mi East 4.6 mph - 0.00 in Rain Light Rain
4:04 PM 41.0 °F 39.0 °F 39.9 °F 96% 30.32 in 1.0 mi East 3.5 mph - 0.00 in Rain Light Rain
4:34 PM 41.0 °F 38.0 °F 39.9 °F 96% 30.32 in 0.8 mi East 4.6 mph - 0.01 in Rain Light Rain
4:45 PM 41.0 °F - 39.9 °F 96% 30.32 in 1.0 mi Calm Calm - 0.01 in Rain Light Rain
4:53 PM 41.0 °F 39.0 °F 39.9 °F 96% 30.34 in 0.8 mi ENE 3.5 mph - 0.01 in Rain Light Rain
5:06 PM 41.0 °F 39.0 °F 39.9 °F 96% 30.32 in 1.0 mi ENE 3.5 mph - 0.01 in Rain Light Rain
5:23 PM 41.0 °F - 39.9 °F 96% 30.32 in 3.0 mi Calm Calm - 0.01 in Rain Light Rain
5:53 PM 41.0 °F 38.0 °F 39.9 °F 96% 30.33 in 4.0 mi ENE 4.6 mph - 0.01 in Rain Light Rain
6:19 PM 41.0 °F 38.0 °F 39.9 °F 96% 30.31 in 2.0 mi ENE 4.6 mph - 0.00 in Rain Light Rain
6:27 PM 41.0 °F 39.0 °F 39.9 °F 96% 30.31 in 1.2 mi NE 3.5 mph - 0.00 in   Overcast
6:45 PM 41.0 °F 39.0 °F 39.9 °F 96% 30.31 in 0.8 mi NNE 3.5 mph - 0.00 in   Mist
6:53 PM 41.0 °F 39.0 °F 39.9 °F 96% 30.32 in 1.0 mi NE 3.5 mph - 0.00 in   Mist
7:05 PM 41.0 °F 38.0 °F 39.9 °F 96% 30.30 in 3.0 mi NE 4.6 mph - N/A   Overcast
7:43 PM 42.1 °F 40.2 °F 39.9 °F 92% 30.29 in 6.0 mi NE 3.5 mph - N/A   Overcast
7:53 PM 42.1 °F - 39.9 °F 92% 30.30 in 6.0 mi Calm Calm - N/A   Overcast
8:04 PM 42.1 °F - 39.9 °F 92% 30.29 in 5.0 mi Calm Calm - N/A   Overcast
8:53 PM 42.1 °F 40.2 °F 39.9 °F 92% 30.28 in 5.0 mi NNE 3.5 mph - 0.00 in Rain Light Rain
9:05 PM 42.1 °F 40.2 °F 39.9 °F 92% 30.26 in 5.0 mi NNE 3.5 mph - 0.00 in   Overcast
9:26 PM 42.1 °F - 39.9 °F 92% 30.26 in 4.0 mi Calm Calm - 0.00 in   Overcast
9:53 PM 42.1 °F - 39.9 °F 92% 30.26 in 5.0 mi Calm Calm - 0.00 in   Overcast
10:24 PM 39.9 °F 37.8 °F 39.9 °F 100% 30.24 in 1.8 mi East 3.5 mph - N/A   Overcast
10:45 PM 39.9 °F - 39.9 °F 100% 30.24 in 0.5 mi Calm Calm - N/A Fog Fog
10:53 PM 39.9 °F - 39.0 °F 97% 30.26 in 0.5 mi Calm Calm - N/A Fog Fog
11:53 PM 39.9 °F - 39.9 °F 100% 30.25 in 0.2 mi Calm Calm - N/A Fog Fog